Wind_Speed
19 19 20 21 23 24 26 27 28 29 29 30 31 32 33 34 35 36 37 38 40 41 42 43 43 44 45 46 47 48 49 49 50 50 51 52 52 52 53 53 53 53 53 52 52 51 51 50 50 49 48 47 46 45 44 44 45 45 45 44 42 40 39 38 38 38 38 38 39 39 39 39 40 40 38 36 34 34 33 32 31 32 32 31 30 29 27 26
19 20 22 23 25 25 26 27 27 28 29 30 31 32 33 35 36 37 39 40 41 43 44 45 45 46 47 48 49 49 50 51 51 52 52 53 53 53 54 54 54 54 54 54 54 54 53 52 52 51 50 49 48 47 46 46 46 46 45 43 42 40 39 39 39 39 39 40 39 39 39 38 38 40 39 37 35 33 34 34 33 32 31 30 29 28 27 26
21 22 23 24 24 25 25 26 27 28 29 30 32 33 35 36 38 39 41 42 43 44 45 46 47 47 48 49 50 51 52 52 53 54 54 54 55 55 55 55 55 55 55 55 55 55 55 54 53 53 52 51 50 49 48 48 47 47 45 44 42 41 42 41 41 41 41 41 40 39 38 36 37 38 38 38 36 33 33 35 35 34 32 30 28 26 25 25
21 22 22 22 23 24 25 26 28 29 31 32 34 35 36 37 38 39 40 41 42 43 44 45 46 47 47 48 50 51 52 52 53 55 55 56 56 57 57 57 57 57 57 57 57 57 56 55 54 54 53 52 52 50 50 49 48 47 46 45 43 43 44 43 42 43 42 41 40 39 37 36 37 36 35 36 35 34 34 35 35 35 34 32 29 26 24 24
20 20 21 22 23 25 26 28 29 30 31 32 33 34 35 36 36 37 38 39 40 41 42 44 45 46 47 47 49 50 51 52 53 54 55 56 57 58 58 58 59 59 59 59 59 58 58 57 55 55 54 53 53 51 50 49 48 47 46 45 43 44 45 45 45 44 43 42 41 40 37 38 39 38 36 36 35 35 35 35 36 36 36 35 33 30 26 25
19 20 22 24 25 27 27 28 29 29 30 30 31 32 33 33 35 36 37 38 40 41 43 44 46 47 48 49 50 51 52 53 54 54 55 56 56 57 58 58 59 60 60 60 60 60 60 59 57 56 55 55 54 52 51 50 48 47 46 45 44 44 46 46 47 46 44 43 42 40 39 38 38 39 38 37 37 38 37 36 36 36 36 36 35 32 29 29
21 23 24 25 26 26 26 26 27 27 28 29 30 30 31 33 34 36 38 40 41 43 45 46 47 49 50 51 52 53 54 55 55 56 56 57 57 57 57 57 58 59 60 61 61 62 62 61 59 58 57 56 55 53 52 51 49 48 47 46 45 45 46 47 49 48 46 44 43 42 40 39 38 38 38 37 38 39 39 38 36 36 36 36 35 32 30 31
23 23 23 23 24 24 24 25 26 26 27 28 29 30 32 33 36 38 40 42 43 45 46 47 48 49 50 51 52 52 53 55 55 56 57 57 58 58 58 58 58 58 59 59 60 61 62 62 61 60 59 58 56 54 54 53 51 50 48 48 46 45 46 47 49 49 47 46 45 43 40 39 39 38 37 38 39 40 41 39 37 35 35 37 37 35 32 31
21 21 21 22 23 23 24 25 25 26 26 27 29 31 33 35 38 40 42 44 46 46 46 45 44 43 43 43 43 44 45 47 49 50 52 53 54 55 56 57 59 59 59 59 59 60 61 61 62 61 60 59 58 56 56 54 52 51 51 50 48 47 47 48 50 49 47 46 45 43 41 39 39 38 38 40 41 42 41 39 37 34 34 38 39 38 34 32
19 20 21 22 23 23 24 24 25 25 26 28 30 33 35 38 39 42 44 45 43 41 38 37 35 34 33 32 32 32 34 36 37 39 41 42 44 46 48 52 56 58 59 60 60 60 59 59 60 61 61 61 59 58 57 54 53 54 54 52 50 50 50 50 51 50 48 46 44 43 42 41 39 38 39 41 41 42 42 40 35 29 30 37 39 38 37 34
19 20 21 22 23 23 23 24 25 26 27 30 32 35 38 40 42 44 43 38 34 31 29 28 27 25 23 22 22 22 23 26 27 29 31 32 33 34 37 41 46 51 55 58 59 60 59 59 58 58 60 61 60 59 57 55 56 58 57 54 52 52 51 51 51 49 47 45 44 42 42 41 39 39 41 41 39 38 39 38 35 30 30 32 33 34 34 34
20 21 22 22 23 23 23 24 25 27 29 32 35 38 41 44 46 44 36 28 25 22 21 20 20 18 16 14 13 13 15 17 18 20 22 24 25 26 28 31 35 39 44 49 54 57 59 59 58 57 58 59 60 60 59 58 59 59 57 56 55 54 53 52 51 49 46 45 43 41 42 42 40 41 41 38 35 34 35 36 37 37 36 33 31 31 32 32
21 21 22 22 23 24 24 25 27 29 31 34 38 41 45 47 45 38 29 23 20 19 18 18 18 18 16 14 11 11 11 11 11 12 14 17 19 21 22 25 27 31 35 39 44 50 55 57 57 57 57 58 60 60 60 60 61 60 58 57 57 55 54 53 51 49 47 45 43 42 43 45 45 45 41 37 36 35 34 34 36 39 39 38 36 34 33 31
21 22 22 23 24 25 26 27 29 32 34 37 41 44 48 47 40 34 29 25 22 21 22 22 21 21 19 15 12 10 9 8 8 8 8 10 12 15 17 20 23 25 28 31 35 40 46 51 54 56 57 58 59 59 60 61 61 61 59 58 58 57 56 54 51 49 46 44 43 41 43 44 46 48 47 44 43 41 39 37 37 38 37 37 36 34 33 33
22 23 24 24 26 27 28 30 32 35 37 41 44 49 50 44 36 33 31 29 26 26 28 27 24 22 20 16 11 9 10 11 10 10 8 6 5 4 7 12 17 21 24 26 29 33 38 44 49 53 56 58 58 59 60 61 60 61 60 60 59 57 56 54 52 50 46 44 43 41 41 43 44 46 48 47 45 44 43 41 40 38 37 36 34 31 31 32
24 25 25 27 28 29 31 33 36 38 40 43 47 52 51 42 35 33 32 31 30 30 30 27 24 21 17 13 13 14 16 16 16 17 15 13 12 11 9 6 3 8 13 17 20 26 33 39 44 50 55 57 58 60 60 58 57 59 60 60 59 57 56 54 52 50 46 41 41 42 41 42 44 44 45 45 43 40 41 42 42 42 41 38 35 32 30 30
26 27 28 29 31 32 34 36 38 40 43 46 50 55 51 40 33 31 30 29 29 30 28 25 24 22 18 17 20 20 19 19 18 18 17 14 13 14 14 14 12 11 10 9 9 13 23 32 40 48 52 55 56 57 59 57 56 57 58 58 58 57 55 54 52 50 47 41 37 39 40 40 43 44 45 46 43 40 39 41 41 42 43 40 37 34 33 33
27 29 30 32 34 35 37 38 40 42 45 48 52 56 50 37 32 30 29 27 24 21 20 20 20 19 19 24 26 25 23 21 19 18 18 16 15 13 12 13 13 14 13 13 12 10 15 23 35 43 44 47 49 48 53 57 55 57 58 58 57 56 54 52 52 50 48 44 38 35 35 37 39 41 45 48 47 44 42 40 38 39 40 38 35 33 33 34
29 30 32 34 36 37 39 40 42 45 48 50 53 56 50 37 31 31 30 27 21 17 19 22 22 21 23 26 27 27 27 25 22 20 20 19 18 15 11 10 11 13 10 7 7 10 14 20 30 37 36 40 43 41 45 49 50 53 56 56 55 55 54 51 49 49 47 46 43 37 34 36 37 38 42 46 48 48 47 44 41 40 40 38 37 37 38 38
30 32 33 35 37 38 39 41 43 46 49 51 54 56 51 39 32 32 32 31 28 27 28 29 29 28 27 25 24 25 25 26 26 22 20 20 20 17 13 9 7 7 5 5 5 11 20 26 31 34 31 36 41 40 42 44 46 48 48 49 50 51 53 51 47 46 46 46 46 44 40 38 38 38 39 41 44 46 48 47 46 46 45 44 42 41 40 41
30 32 33 35 36 38 40 42 44 46 49 51 53 56 52 41 34 33 33 34 35 33 31 30 31 31 28 24 22 22 22 23 23 21 20 20 20 17 15 12 9 7 8 10 13 22 32 34 35 34 32 35 39 41 42 43 44 44 44 45 45 45 49 49 45 43 43 43 46 48 46 42 40 41 40 39 39 41 42 43 44 45 45 43 40 39 38 39
30 31 33 35 36 38 40 42 44 45 47 51 53 55 54 45 36 34 35 36 36 35 33 32 31 31 29 25 20 18 19 20 20 19 18 20 20 18 17 16 14 12 15 19 24 33 37 34 33 32 32 35 38 41 42 42 42 42 42 43 43 44 46 47 44 42 41 42 44 46 47 46 43 43 43 42 40 39 39 40 42 43 43 43 42 41 40 40
30 31 33 34 36 38 40 42 43 44 46 49 51 52 55 50 40 34 34 35 35 34 32 31 30 30 29 25 21 18 17 18 19 18 17 18 19 19 19 19 19 19 21 25 31 33 32 30 27 25 27 32 38 41 40 39 38 38 39 40 42 43 44 45 44 43 41 42 43 42 44 47 46 45 45 44 44 43 42 41 41 42 43 44 44 44 43 42
30 31 33 34 36 37 39 41 43 44 45 47 49 50 53 53 46 36 32 34 36 34 33 31 29 28 27 25 23 21 19 19 19 18 18 18 17 19 21 24 25 24 23 25 27 26 25 26 24 24 29 32 38 40 36 34 33 34 36 38 40 40 39 39 40 42 43 43 42 40 41 44 46 46 46 45 45 45 46 45 44 44 44 44 45 45 45 45
29 31 32 34 35 37 38 40 42 43 44 45 47 48 50 51 48 39 31 31 36 38 37 33 29 28 26 25 25 22 20 20 19 18 20 20 19 21 25 27 25 23 24 24 24 24 25 26 24 26 32 36 41 38 33 34 33 33 34 35 36 37 37 36 36 38 41 42 42 41 41 43 43 44 44 44 44 45 46 47 48 48 47 46 46 46 47 48
29 30 32 33 34 36 37 38 40 42 44 45 45 46 48 49 50 45 35 32 35 39 40 36 33 31 28 27 26 22 20 20 20 20 21 21 21 23 24 23 21 22 24 23 24 28 29 27 23 25 29 34 38 36 35 38 37 35 36 36 37 37 37 38 37 36 37 39 40 41 42 43 42 42 42 42 42 43 43 44 46 46 46 46 46 46 47 48
29 29 30 32 33 35 36 37 39 41 42 44 44 44 47 48 50 49 45 44 43 43 44 42 38 34 30 29 27 24 23 23 22 21 22 23 23 23 20 18 19 25 27 23 23 28 29 26 24 25 28 31 34 35 35 37 33 31 34 36 36 37 36 37 37 36 35 35 37 39 41 42 41 40 40 40 40 41 41 42 42 43 43 44 46 47 47 48
28 28 29 31 32 34 35 37 38 39 41 42 42 43 45 46 48 49 52 58 56 49 46 45 43 39 33 30 27 26 27 26 24 24 25 26 24 22 19 18 21 26 26 21 21 27 28 27 28 29 30 30 31 32 32 33 29 28 31 33 31 31 31 32 33 33 33 32 33 36 39 39 39 37 36 37 38 38 39 40 39 39 40 41 44 46 48 48
27 28 29 30 31 32 34 36 37 38 39 40 40 41 42 44 46 47 54 62 61 55 50 44 43 42 37 32 28 29 30 28 27 28 28 25 23 21 19 19 22 26 27 25 27 30 31 30 31 31 29 29 29 29 30 31 28 26 28 29 27 28 28 26 26 27 28 30 30 31 32 33 33 32 32 32 33 34 35 35 35 35 35 37 39 42 44 46
26 27 28 30 31 32 33 35 36 36 38 39 38 38 40 42 42 47 57 62 60 59 55 49 44 42 40 36 33 32 32 31 30 30 28 26 24 23 21 21 22 23 28 32 34 32 31 32 31 29 28 28 28 28 30 29 26 26 26 23 21 23 25 23 22 22 24 26 26 26 26 26 26 27 29 28 26 27 27 27 28 29 30 32 34 36 39 41
27 28 29 30 31 32 33 34 34 35 37 38 36 36 39 40 41 49 57 59 58 57 56 55 51 45 42 39 38 37 34 33 33 32 30 29 28 25 23 23 22 22 26 34 37 33 31 32 34 33 32 30 26 24 27 27 24 22 19 15 11 13 17 18 18 18 18 18 19 20 20 22 23 25 27 26 26 26 26 26 27 28 29 30 31 33 35 37
27 28 29 30 31 32 33 33 33 33 36 36 34 35 37 39 44 52 55 55 55 54 54 55 56 53 48 43 41 40 38 37 36 34 33 32 30 27 25 24 22 21 24 31 36 34 32 32 33 34 31 28 24 21 24 24 21 18 14 11 8 7 9 12 13 13 14 14 15 15 16 18 19 21 23 24 25 26 26 27 28 28 29 29 30 31 32 34
27 28 29 30 31 32 32 32 32 33 34 34 33 35 36 40 48 52 52 52 52 51 52 53 54 55 54 49 47 44 41 40 39 37 36 33 31 30 28 24 21 20 22 27 30 31 31 30 29 29 26 24 21 19 21 22 19 16 12 10 9 8 7 7 8 8 10 11 11 12 14 15 15 16 17 18 20 21 22 23 24 25 25 26 27 28 29 31
26 27 28 30 31 31 32 31 31 32 32 32 33 33 35 42 49 48 48 50 49 49 50 51 52 53 53 54 54 51 46 44 41 39 36 33 33 32 30 27 25 23 22 23 25 26 26 25 25 24 21 21 20 16 16 16 15 14 11 10 11 11 11 11 11 11 11 11 10 10 11 11 11 12 13 14 16 17 18 18 18 19 20 21 22 24 25 27
25 26 28 29 29 31 31 31 30 31 32 32 30 31 37 43 46 45 46 47 46 47 47 48 49 50 51 53 54 53 52 50 46 42 38 36 36 36 34 32 31 28 24 23 24 22 22 22 22 20 18 19 20 17 17 15 13 13 13 12 12 12 11 11 11 11 10 9 8 7 7 8 9 9 10 11 12 13 14 14 15 16 18 19 21 22 23 24
23 24 26 27 28 30 31 31 30 30 34 31 27 31 39 42 42 43 44 44 44 45 45 45 46 47 48 50 50 51 52 52 50 47 44 42 41 40 38 36 34 32 29 28 27 25 24 24 24 22 21 23 24 22 20 19 18 17 16 15 14 13 12 11 11 10 9 7 6 5 5 5 6 5 6 7 9 10 11 12 13 14 15 16 17 18 19 20
21 22 24 25 27 28 29 31 30 31 34 30 26 33 39 39 40 40 41 41 42 42 42 43 44 45 46 47 47 48 48 49 49 48 48 48 46 44 41 38 37 35 33 31 30 29 28 28 28 26 26 27 27 26 24 23 22 20 19 18 16 15 15 15 14 13 11 10 9 8 7 5 4 3 2 3 3 4 6 7 8 9 10 11 12 12 13 14
20 20 22 24 25 26 28 29 29 32 33 28 28 34 36 36 38 38 39 39 39 40 41 41 43 43 43 43 44 45 45 45 46 46 47 49 49 48 44 42 40 37 35 34 33 32 30 31 31 29 28 28 28 27 26 25 24 23 21 20 18 17 17 16 15 14 13 12 11 10 8 7 6 5 5 3 2 1 1 2 3 4 4 5 6 6 7 8
19 19 21 22 23 25 27 26 28 32 30 27 30 34 34 35 36 36 37 37 37 38 39 40 41 41 41 41 42 42 42 43 44 44 45 47 48 48 46 45 44 41 39 38 36 35 34 34 35 33 31 30 29 29 28 26 26 25 24 23 22 21 20 19 19 17 17 16 16 15 14 14 13 12 11 11 10 10 9 8 7 7 7 8 8 8 9 9
18 18 19 21 21 23 25 24 28 30 28 27 31 33 33 34 34 34 35 35 36 36 37 38 39 39 40 40 40 41 41 41 41 42 43 44 44 44 44 44 43 42 42 40 40 38 37 37 38 37 36 34 33 33 32 31 30 30 30 29 28 27 26 26 25 24 23 23 23 22 21 21 20 19 18 18 17 16 15 15 14 13 13 13 12 12 11 11
17 17 19 19 20 22 23 24 27 27 26 28 31 31 32 33 33 33 33 33 34 35 35 36 36 37 38 38 38 39 39 39 39 40 41 41 41 42 41 40 40 40 40 39 39 38 37 38 38 39 38 36 36 35 34 33 33 32 32 32 31 31 30 29 28 27 26 25 25 24 23 22 21 20 20 19 18 17 16 15 15 14 13 12 12 11 11 11
15 16 18 18 19 20 22 23 24 25 26 28 29 30 31 31 31 32 32 32 32 33 33 34 34 35 35 35 36 36 36 37 37 37 38 38 38 39 38 38 38 38 38 37 37 36 36 36 36 36 36 35 35 34 33 33 32 31 31 30 29 29 28 28 27 26 25 24 23 22 21 20 19 18 17 16 16 15 14 13 13 12 11 11 11 11 12 13
14 15 16 17 18 19 20 21 22 24 26 27 28 29 29 29 30 30 31 31 31 31 31 31 32 32 32 33 33 33 33 34 34 35 35 35 35 35 35 35 35 35 35 34 34 34 34 34 33 33 33 33 32 32 31 30 29 29 28 27 26 26 25 24 23 22 22 21 20 19 18 17 16 15 15 14 13 13 12 12 12 12 12 13 14 15 16 18
12 13 14 15 16 17 19 20 21 22 24 25 26 26 27 27 28 28 29 29 29 29 30 30 30 30 30 30 30 31 31 31 32 32 32 32 32 32 32 31 31 31 31 31 31 30 31 31 30 30 30 30 29 29 28 28 27 26 25 24 24 23 21 21 20 19 18 18 17 16 16 15 14 13 12 12 12 12 12 13 13 14 15 16 18 19 20 21
11 11 12 13 14 15 17 18 19 20 22 23 24 24 25 25 26 26 27 27 28 28 28 28 28 28 28 28 28 28 28 29 29 29 30 30 29 29 29 29 29 28 28 28 28 27 27 27 27 26 26 26 26 26 25 25 24 24 23 23 22 21 20 19 18 17 16 15 15 14 14 13 12 11 12 12 13 14 14 15 16 17 17 18 20 21 22 24
9 10 11 12 13 14 15 16 17 18 20 21 22 23 23 23 24 24 24 24 25 26 26 26 26 26 26 26 26 26 26 26 26 27 27 27 27 27 27 26 26 26 26 25 25 24 24 24 23 23 22 22 22 22 21 21 21 21 20 20 20 19 19 18 18 17 16 15 15 15 14 13 13 13 14 14 15 16 16 17 17 18 19 20 21 22 24 25
8 9 10 11 11 12 13 14 15 16 17 18 19 20 21 21 22 22 22 22 23 23 23 24 24 25 25 25 25 24 24 24 24 24 24 24 24 24 24 24 23 23 23 23 23 22 22 22 21 21 20 20 19 19 18 18 18 18 17 17 17 17 17 16 16 16 16 15 15 15 15 14 15 16 16 16 17 18 18 19 20 20 21 22 23 24 25 26
8 8 9 10 10 11 12 13 13 14 15 16 17 18 19 20 20 20 20 21 21 21 21 21 22 22 22 22 22 22 22 22 21 21 21 21 21 21 21 21 21 21 21 21 20 20 20 20 20 19 19 18 18 17 17 16 16 15 15 15 15 15 15 15 15 15 14 14 15 15 15 14 15 16 17 17 18 19 20 21 22 23 24 25 25 26 27 28
8 9 9 9 10 10 11 11 12 12 13 13 14 15 17 18 18 19 19 19 19 20 20 20 20 20 20 20 20 20 20 20 20 20 20 20 20 19 19 19 19 19 19 19 19 19 18 18 18 17 17 17 17 17 16 15 15 15 14 14 14 14 13 13 14 14 14 15 15 15 16 16 16 17 19 19 19 20 22 23 24 25 27 28 28 29 30 31
7 8 8 9 9 10 10 10 10 11 11 11 12 13 14 15 16 17 17 17 18 18 18 18 18 18 19 19 19 19 19 18 18 18 18 18 19 18 18 18 18 17 17 17 17 17 17 16 16 16 15 15 15 15 14 14 14 14 15 15 15 15 15 15 15 15 15 16 17 18 19 19 18 20 22 22 23 23 24 25 27 28 29 30 30 30 31 33
6 6 7 7 8 8 8 9 9 9 9 9 10 11 11 12 13 14 15 15 15 15 16 16 16 16 17 17 17 18 18 18 17 17 17 16 16 16 16 16 16 16 16 16 16 16 15 15 15 15 15 15 15 14 14 14 14 14 15 16 17 17 18 18 18 18 18 18 19 20 22 23 22 22 24 25 25 25 26 27 29 30 31 31 31 32 33 35
5 5 5 6 6 7 7 8 8 8 8 8 8 9 9 10 11 11 12 13 13 13 13 14 14 14 14 15 15 16 16 17 17 16 16 15 15 14 14 15 15 14 14 14 14 14 14 14 15 14 15 15 16 16 16 15 15 16 16 17 17 18 19 20 20 21 20 20 20 22 23 24 24 25 26 26 26 26 26 28 30 31 31 31 32 33 34 37
Wind_Direction
303 302 301 301 299 298 297 296 295 294 293 292 291 290 289 288 286 285 283 282 280 279 277 276 274 272 271 270 268 267 265 264 262 261 259 257 256 255 253 252 250 249 247 246 244 243 241 240 239 238 238 237 237 236 236 236 236 236 235 236 236 237 237 236 235 236 237 238 239 239 237 237 237 236 238 240 241 241 243 249 252 251 249 247 246 247 248 250
307 306 304 303 302 301 299 298 298 296 295 295 293 292 291 290 289 287 286 284 283 281 279 278 276 274 272 270 268 267 265 264 262 261 259 258 256 255 253 252 250 249 247 246 245 243 242 241 239 238 237 237 237 235 235 235 235 236 235 236 236 236 236 234 234 234 235 237 238 238 238 239 239 238 237 238 241 242 243 248 251 252 252 250 249 249 252 253
309 308 306 305 304 303 303 302 301 300 299 298 296 295 294 292 291 289 288 286 285 283 282 280 278 276 274 272 270 268 266 264 262 260 259 257 255 254 253 251 249 248 247 246 244 243 241 240 239 238 237 236 236 235 234 234 234 234 234 235 234 235 234 233 232 232 233 235 236 236 237 238 239 237 235 236 238 242 244 246 248 250 250 250 248 248 250 251
311 310 310 309 308 307 306 305 304 303 302 301 299 297 296 294 293 291 290 289 287 286 284 282 280 278 276 274 272 269 267 265 263 261 259 257 255 253 251 249 248 247 245 244 243 242 240 239 238 237 236 235 234 234 233 232 232 232 232 232 231 233 234 232 232 231 231 232 234 234 233 233 235 234 233 233 236 241 243 244 247 249 249 249 247 246 248 248
316 316 315 314 313 311 309 308 307 306 304 303 301 300 299 298 296 295 294 292 291 289 287 285 282 280 278 275 273 271 268 266 264 261 259 257 255 253 250 249 247 245 243 242 241 240 239 238 236 235 234 234 233 232 231 231 230 230 230 229 228 231 233 231 231 231 230 230 231 233 232 230 232 233 233 231 232 238 242 244 246 249 250 250 249 247 245 245
322 322 320 318 315 314 313 311 310 308 307 306 305 305 304 303 302 301 299 297 295 292 290 287 284 282 279 276 274 272 270 267 264 262 260 258 256 254 251 249 247 245 243 241 240 239 237 236 235 234 232 232 231 230 229 229 228 228 227 227 226 229 232 230 230 230 229 229 229 231 231 230 232 233 232 231 231 234 238 242 244 247 250 250 249 247 244 243
326 325 322 321 319 318 317 316 315 314 313 312 312 311 310 309 307 305 302 299 296 293 291 288 286 283 281 278 275 273 270 268 265 263 261 259 257 255 252 250 247 245 243 241 239 237 236 235 233 232 231 230 230 228 228 227 227 226 225 225 224 227 231 229 229 230 228 228 226 227 229 230 231 231 231 231 232 234 235 238 242 245 248 249 248 246 244 243
329 328 326 325 325 324 323 322 320 319 319 319 319 318 316 313 310 307 304 301 298 296 293 290 288 285 282 279 276 273 271 268 266 264 261 259 257 255 254 251 249 246 243 241 239 237 235 233 232 230 229 229 228 227 227 226 225 225 224 224 222 225 229 228 229 230 228 227 225 224 225 227 227 228 230 231 232 234 235 237 241 246 250 251 250 248 246 245
335 334 333 333 332 330 329 327 327 327 327 327 325 323 320 316 313 311 308 306 303 301 298 294 291 287 284 282 279 276 273 270 268 265 262 260 257 255 253 251 249 246 244 242 239 237 235 233 231 229 228 228 227 227 226 225 224 224 224 224 221 223 227 227 227 228 227 227 226 223 221 222 224 225 228 232 233 233 235 237 241 248 254 253 250 248 245 245
343 342 341 339 337 336 335 335 335 335 334 332 330 327 323 320 318 316 315 313 310 307 303 299 296 293 291 288 285 282 278 275 272 269 266 263 259 256 253 250 247 245 243 241 239 237 235 232 230 228 227 226 226 226 226 224 224 224 223 223 221 222 225 225 226 226 226 226 225 223 221 221 222 223 227 231 232 233 234 236 239 241 245 247 245 244 243 243
350 348 346 344 342 342 344 345 344 342 340 338 335 332 329 326 324 322 322 322 318 314 310 307 305 302 300 295 289 284 280 277 274 272 269 266 263 259 255 251 248 244 242 240 238 237 234 232 229 227 226 224 224 224 223 223 223 223 222 221 221 221 223 224 225 226 225 225 224 222 222 221 221 221 224 226 227 229 230 231 230 221 224 236 237 238 240 240
355 352 350 350 351 353 354 353 351 347 345 343 341 338 336 333 330 329 332 333 328 325 324 322 318 319 321 315 301 290 284 280 277 274 271 268 263 258 253 250 247 244 241 238 236 234 232 230 228 226 224 223 222 221 221 220 221 222 221 220 220 221 222 223 224 224 223 224 223 221 220 219 219 220 222 222 222 226 229 229 226 221 224 234 237 241 244 244
360 358 359 1 2 2 1 359 356 354 352 349 346 344 342 340 337 338 345 348 346 346 346 343 342 346 348 340 330 320 311 302 291 281 272 268 263 257 251 245 243 241 239 237 234 231 229 227 225 223 222 220 220 219 219 218 219 219 219 219 220 220 221 223 224 225 223 222 221 220 220 218 217 219 221 223 225 227 230 232 232 229 232 238 243 248 249 246
8 9 10 11 11 9 7 5 3 0 357 354 351 349 348 347 347 352 358 1 2 4 2 359 357 354 353 351 345 336 329 326 319 308 291 278 271 263 254 247 241 237 236 234 232 229 226 223 221 219 217 216 216 216 216 217 217 217 216 217 218 219 220 221 223 225 224 223 221 220 221 222 220 222 223 225 230 232 232 235 236 233 233 237 241 246 248 247
18 19 19 18 17 15 13 12 9 6 2 359 356 355 354 356 0 4 5 8 8 8 7 2 357 355 354 352 350 355 5 14 23 28 28 24 4 309 265 251 241 235 233 230 228 225 221 217 214 213 212 212 212 212 213 214 214 215 215 215 215 216 218 220 221 223 223 222 222 219 219 223 223 224 226 227 230 234 233 233 235 234 234 237 237 239 245 249
26 26 25 23 22 20 18 16 14 10 6 3 1 0 1 4 11 13 11 11 9 7 5 357 354 359 0 5 21 34 40 48 54 52 55 56 59 68 73 84 167 207 211 214 215 216 213 209 207 206 207 208 207 208 210 211 211 212 214 215 215 215 217 219 220 221 221 220 222 222 220 223 225 224 226 227 227 231 233 233 235 238 238 236 233 231 234 241
32 30 29 27 25 23 22 20 17 13 11 8 6 5 7 11 17 20 19 15 10 5 0 357 0 5 15 38 55 61 66 68 61 55 60 69 75 74 72 79 92 109 118 125 146 192 203 199 200 200 200 202 201 204 205 205 206 208 210 212 214 215 216 218 219 220 220 216 216 220 218 219 222 223 223 224 223 225 230 231 232 236 236 232 229 229 230 235
34 32 31 29 27 25 24 22 19 16 14 13 11 9 11 16 20 23 26 23 15 6 5 13 16 20 41 64 75 73 70 68 62 61 67 76 83 77 70 70 81 99 92 81 104 155 186 187 192 190 189 194 194 196 201 203 206 208 210 211 212 214 215 217 218 219 220 217 213 212 211 212 218 221 221 222 221 221 225 225 222 222 224 226 228 232 236 239
35 34 32 30 29 27 25 24 21 19 17 16 15 12 13 20 24 26 28 29 28 25 29 36 38 46 66 82 82 71 65 63 62 65 68 74 79 81 88 76 74 96 92 69 108 166 179 176 180 175 176 186 185 186 193 197 202 206 211 212 211 212 213 214 216 217 218 218 215 212 212 214 217 220 221 222 222 222 223 223 220 219 225 233 239 244 249 248
36 34 33 32 31 29 27 26 23 21 20 18 17 16 16 20 25 28 27 29 33 35 35 37 41 52 70 84 81 70 64 59 57 60 65 68 67 72 92 106 108 114 103 77 100 148 158 157 159 160 167 179 180 181 184 189 195 200 204 206 207 209 211 210 211 214 216 217 216 215 216 217 217 219 221 223 224 225 226 228 230 234 241 249 251 252 254 252
36 35 34 33 32 31 29 28 26 24 23 21 19 18 19 22 25 28 27 28 32 38 41 40 43 54 69 80 81 71 62 56 53 54 60 62 56 61 79 93 108 119 112 108 119 134 140 143 149 156 165 172 176 179 180 184 191 193 194 198 200 202 206 206 206 210 212 214 217 217 218 218 217 219 222 223 224 226 229 232 235 240 245 250 250 250 252 251
37 35 34 34 32 32 31 30 29 27 26 25 23 20 22 25 28 28 28 28 31 35 41 42 44 52 63 72 75 67 56 49 46 47 58 61 53 58 71 77 86 103 112 117 125 130 132 138 148 157 167 172 173 174 177 183 188 188 190 194 198 199 202 203 202 205 208 209 214 217 218 219 220 220 222 224 226 228 231 235 237 240 242 245 248 250 252 251
38 36 35 34 32 32 32 31 30 29 29 28 27 24 24 27 29 30 30 33 36 38 42 45 45 50 56 61 64 60 49 42 44 51 64 65 57 61 73 83 91 101 110 120 125 125 127 136 141 148 163 172 171 169 175 181 182 183 188 193 197 199 201 204 201 200 204 207 211 214 216 219 221 222 224 227 229 231 233 235 237 240 242 243 247 251 254 253
39 37 36 34 33 32 31 32 31 31 31 31 30 28 28 30 30 30 30 36 41 44 47 48 48 51 54 56 58 56 47 44 48 58 70 72 69 74 84 92 96 99 103 113 119 119 126 131 127 137 155 164 164 165 172 178 174 175 184 194 199 198 199 206 208 202 203 206 208 210 214 218 222 224 226 230 232 234 235 237 238 240 243 245 247 250 253 254
40 38 36 35 34 33 32 32 32 32 32 32 32 32 33 35 36 35 34 38 43 45 48 50 51 55 56 55 56 53 47 48 53 64 74 73 75 87 94 97 97 96 98 104 111 113 123 125 115 125 143 154 160 160 162 171 170 169 180 191 198 199 196 200 208 209 209 209 209 210 214 219 222 223 226 229 232 235 237 238 240 242 245 247 248 250 251 253
40 39 37 36 35 34 33 32 33 33 33 33 33 34 36 38 42 43 44 50 52 52 52 52 53 56 57 57 57 55 54 57 60 66 73 75 84 94 99 100 94 90 94 105 113 113 119 124 114 113 127 146 161 161 158 165 169 167 173 183 190 196 198 199 201 206 212 215 215 215 216 219 222 223 225 228 231 235 237 239 242 243 244 245 247 248 251 253
41 39 37 36 35 35 34 32 33 34 34 33 33 34 36 38 42 44 48 55 56 55 54 53 54 56 56 57 57 57 60 62 63 67 76 83 91 95 94 92 89 87 93 105 117 117 117 119 115 112 118 135 158 166 164 167 171 170 173 178 184 191 197 202 204 204 208 215 219 220 220 223 225 226 229 232 234 236 238 241 242 244 244 244 246 247 249 252
41 39 37 36 34 34 34 32 32 33 35 35 33 34 37 37 40 42 46 53 54 53 53 52 52 54 55 57 58 59 62 64 70 78 84 87 90 90 87 88 91 89 90 101 116 119 117 113 112 112 114 127 148 164 171 172 174 179 182 182 187 192 194 199 204 206 207 209 215 220 222 225 227 229 232 235 237 238 240 241 244 246 247 247 247 247 249 251
42 39 37 36 34 33 34 33 31 32 35 35 34 35 38 39 39 40 46 52 53 51 52 52 52 54 55 57 60 62 64 68 75 81 82 84 86 88 90 94 94 86 82 97 116 119 112 107 109 111 113 122 135 152 167 173 175 179 182 183 190 199 201 200 202 206 210 209 212 217 221 225 228 231 234 237 238 240 242 244 245 247 248 249 250 250 251 252
41 38 37 36 35 33 33 33 31 31 34 34 33 34 38 41 40 42 48 52 53 52 52 53 54 56 56 58 62 64 66 69 72 76 79 84 88 94 101 100 93 82 80 95 110 112 106 104 109 112 116 120 124 136 149 158 166 170 169 172 182 196 202 203 201 203 207 210 214 218 221 225 227 231 237 240 241 243 248 250 250 251 251 252 253 254 255 255
39 38 36 35 35 33 32 33 31 30 33 33 32 34 37 40 41 44 49 52 53 53 53 54 55 57 58 59 61 64 67 69 71 74 79 83 85 93 103 100 93 86 85 95 101 105 108 112 113 113 115 116 116 123 131 141 154 156 152 152 163 186 194 199 203 204 205 209 214 220 224 227 229 233 240 245 247 249 253 256 257 257 256 256 256 257 258 258
39 38 36 34 35 34 32 33 31 31 33 32 32 33 34 39 43 46 48 50 53 53 52 54 55 56 58 58 61 64 66 70 73 76 79 81 84 94 101 100 97 95 96 99 101 107 115 116 113 113 113 114 115 117 121 132 147 146 139 139 146 171 185 195 206 212 215 218 221 226 230 234 236 240 245 249 252 254 256 257 258 259 259 259 260 261 261 262
39 37 36 34 33 34 32 32 31 32 33 31 31 31 32 38 44 46 47 49 51 51 51 53 54 55 57 59 61 64 66 69 73 76 79 82 88 94 97 98 101 104 107 107 106 111 116 115 113 112 111 110 115 122 123 128 139 142 144 147 146 147 147 158 170 180 196 208 216 224 230 234 238 242 245 248 251 253 255 257 258 259 261 261 262 263 263 264
39 36 35 34 33 34 33 31 32 32 34 33 30 30 34 40 44 45 47 49 50 51 51 52 53 54 55 57 59 61 64 68 70 74 79 85 90 93 95 98 99 102 107 112 115 115 115 117 116 111 109 109 112 121 124 126 131 133 136 143 147 151 151 152 155 159 171 186 200 214 221 225 229 233 237 240 244 248 252 255 257 259 260 261 262 263 264 266
39 36 35 35 34 35 34 33 32 32 36 34 26 29 38 41 43 44 46 48 49 50 51 52 53 53 54 55 57 58 61 64 67 73 80 85 89 92 95 97 97 97 102 112 118 117 117 120 120 117 118 117 116 122 126 126 129 128 129 134 137 141 146 151 157 165 174 182 191 198 202 206 212 220 225 229 235 241 246 250 252 253 255 257 259 262 264 266
38 36 36 35 35 35 35 34 33 33 38 33 23 32 40 40 42 44 45 47 48 50 51 52 53 54 55 56 57 57 58 60 63 68 74 79 82 86 89 92 95 97 101 106 110 112 116 117 117 118 119 118 119 121 122 122 121 120 120 120 119 116 115 119 126 136 149 154 149 145 155 176 191 204 213 219 228 236 241 246 250 253 255 258 261 265 268 270
36 34 35 35 36 36 36 36 34 36 40 34 27 37 41 40 42 43 44 46 47 49 50 51 53 55 55 56 58 58 59 60 61 63 67 71 74 77 81 85 90 94 97 99 101 104 107 108 108 109 109 109 111 111 112 112 111 112 112 108 107 106 105 107 111 115 123 125 120 120 126 133 140 145 156 184 214 232 243 252 258 263 267 270 273 276 278 280
35 33 33 35 36 36 38 37 34 38 41 35 33 40 41 41 43 43 44 45 46 47 48 49 52 54 55 57 58 60 60 61 62 62 64 67 69 71 74 78 82 87 90 92 94 96 97 100 102 101 100 100 100 101 102 102 102 104 104 102 101 101 99 99 100 101 103 102 99 100 99 95 90 83 80 80 72 60 356 310 302 304 307 308 309 309 309 312
35 32 32 33 35 37 40 38 37 41 42 37 38 42 42 43 44 43 44 45 45 46 46 47 50 51 54 56 58 60 62 63 63 63 64 65 67 68 70 72 75 78 82 84 86 88 89 92 94 94 94 93 93 94 94 94 95 95 95 95 95 95 93 92 91 89 88 87 86 85 82 81 79 77 76 74 71 69 66 61 57 51 46 41 35 27 21 14
36 34 34 34 35 38 41 40 41 43 42 41 43 44 44 44 44 44 45 45 46 46 46 46 47 49 50 52 55 58 60 62 63 64 65 66 67 68 69 70 72 74 75 77 79 81 83 85 88 89 89 89 90 91 91 92 93 92 92 93 92 92 91 90 89 87 87 86 85 84 82 81 79 78 77 74 72 70 67 64 60 55 51 45 39 33 26 17
37 36 36 36 36 40 42 43 43 44 44 44 46 46 46 46 46 45 45 44 45 46 46 47 47 47 48 49 51 53 55 59 62 64 65 67 68 70 70 71 72 73 75 75 76 77 79 81 82 84 85 86 87 89 90 92 92 92 93 92 92 92 91 91 90 89 88 87 85 84 83 80 77 75 73 70 67 64 60 56 51 46 41 34 27 20 11 1
39 38 39 38 37 40 44 45 46 46 46 46 46 47 48 48 48 48 47 46 45 45 46 47 47 47 47 48 49 50 52 54 57 60 63 65 67 69 71 72 73 74 75 76 76 77 78 78 78 79 81 83 85 86 87 88 89 90 90 90 90 89 88 89 89 87 86 85 83 82 81 77 73 71 68 63 59 55 51 47 41 35 28 18 9 359 351 344
39 41 42 41 40 40 43 45 47 48 48 48 48 48 48 49 49 50 49 49 47 46 46 47 47 48 48 48 48 49 50 51 53 55 57 61 64 67 70 72 73 74 75 76 77 77 77 78 78 78 79 80 81 81 82 83 84 84 84 84 85 84 83 82 81 80 79 77 75 73 72 69 65 63 59 53 47 42 35 29 21 13 5 358 351 345 340 336
41 42 43 45 45 43 43 45 46 47 48 49 50 49 49 49 50 50 51 51 51 50 49 48 48 48 49 49 49 49 49 50 51 52 54 56 59 62 65 69 71 73 74 75 76 77 78 79 80 80 79 78 78 78 78 78 78 78 78 77 77 77 76 74 73 71 69 65 64 61 59 56 51 48 43 35 29 21 14 7 1 355 349 344 340 337 334 331
41 42 44 47 48 49 48 48 46 46 47 48 50 51 50 49 50 51 51 52 53 53 52 52 51 50 50 50 51 51 51 50 51 51 52 54 56 57 60 62 65 68 71 73 74 75 77 78 80 80 79 78 78 77 76 75 73 71 71 69 68 67 65 63 61 59 57 53 50 47 43 39 35 30 22 15 9 4 360 355 349 345 340 336 334 331 329 327
41 42 45 47 49 52 53 53 51 49 48 47 49 51 51 50 50 50 50 52 54 54 54 55 55 54 53 53 52 53 53 53 53 53 53 54 55 57 58 58 60 63 65 67 69 70 72 73 74 75 75 75 74 73 72 70 68 66 64 62 59 57 55 52 49 45 42 39 36 31 25 19 15 11 6 0 356 353 350 346 342 338 334 331 329 327 325 324
36 40 45 46 47 50 52 55 55 54 51 50 49 50 51 51 51 50 50 51 53 54 56 56 57 57 57 56 55 54 54 55 56 56 56 55 56 57 58 59 60 61 62 64 66 67 68 69 69 69 69 68 67 66 65 63 60 58 56 53 50 48 45 43 41 37 32 28 25 21 16 11 5 1 359 355 350 346 343 341 338 333 329 326 325 324 322 320
21 28 36 41 43 46 48 50 53 55 54 54 52 51 51 52 52 51 51 51 51 52 54 56 57 57 58 58 58 58 58 58 57 58 58 59 59 59 59 60 62 62 63 63 63 64 65 66 66 65 64 63 61 60 58 57 56 53 50 48 44 41 38 34 31 29 25 21 16 11 7 6 359 353 353 351 347 343 340 337 334 330 326 324 323 322 321 320
8 14 22 28 34 39 42 45 48 49 50 52 54 54 53 52 52 53 52 52 52 51 51 53 54 54 55 56 57 59 61 61 61 61 60 60 60 59 59 60 60 61 62 62 62 62 60 59 59 59 59 59 57 54 51 49 48 45 43 41 37 34 30 26 21 17 13 9 5 359 356 357 353 347 347 348 345 340 337 334 331 327 323 323 323 323 322 320
355 4 10 16 22 29 34 39 42 42 42 45 47 51 54 54 53 54 54 53 53 52 51 51 52 53 53 53 54 55 57 59 60 61 61 61 61 59 58 57 56 56 56 57 58 57 56 54 52 50 51 51 50 48 45 41 37 34 31 28 24 20 15 12 8 6 3 359 355 350 346 347 347 343 341 342 342 340 338 334 331 327 324 324 325 325 323 320
339 351 360 7 11 16 21 27 33 34 35 37 39 42 46 49 52 53 53 55 56 54 53 52 51 52 52 53 53 54 54 55 57 58 59 59 60 61 60 59 57 55 53 52 51 50 48 47 45 41 38 38 38 36 35 32 26 23 20 16 13 8 3 359 355 354 356 353 348 344 340 340 341 339 336 336 336 336 335 333 330 326 324 327 328 327 324 320
314 327 340 351 358 1 6 12 18 22 25 27 30 32 32 36 41 46 50 54 57 57 55 53 52 51 51 52 53 54 55 55 55 56 57 57 57 58 59 59 59 57 54 52 50 47 44 42 39 36 31 28 25 22 23 21 16 13 10 7 5 2 356 351 346 345 349 348 344 338 333 333 335 334 331 330 330 331 331 329 325 321 322 326 327 326 323 320
Height
5750 5749 5747 5746 5744 5743 5741 5739 5737 5735 5733 5731 5729 5727 5725 5723 5722 5720 5718 5716 5715 5713 5712 5711 5710 5709 5708 5707 5707 5706 5706 5706 5707 5708 5708 5709 5710 5712 5714 5716 5718 5720 5722 5725 5727 5729 5731 5734 5737 5741 5743 5746 5748 5751 5754 5756 5758 5760 5763 5767 5771 5774 5776 5778 5778 5780 5782 5781 5783 5787 5790 5793 5794 5795 5797 5798 5799 5800 5802 5802 5802 5804 5806 5809 5811 5813 5815 5816
5748 5747 5745 5743 5741 5740 5738 5736 5734 5732 5730 5728 5725 5723 5721 5719 5717 5715 5712 5710 5709 5707 5705 5704 5703 5702 5701 5700 5699 5699 5699 5699 5699 5700 5700 5701 5702 5704 5706 5708 5711 5713 5715 5717 5720 5722 5725 5727 5731 5735 5738 5740 5743 5746 5748 5751 5753 5756 5760 5764 5767 5770 5770 5772 5773 5775 5777 5777 5779 5783 5787 5790 5791 5792 5794 5796 5797 5799 5800 5800 5800 5802 5804 5807 5810 5812 5814 5815
5746 5744 5743 5741 5739 5737 5735 5733 5731 5729 5726 5724 5722 5719 5717 5714 5712 5709 5707 5704 5702 5700 5698 5696 5695 5694 5693 5692 5691 5690 5690 5690 5690 5690 5691 5692 5694 5695 5697 5700 5702 5704 5707 5709 5712 5714 5717 5720 5724 5728 5732 5735 5737 5740 5743 5746 5748 5752 5757 5760 5763 5764 5763 5766 5768 5770 5772 5773 5776 5780 5785 5787 5787 5789 5791 5793 5795 5796 5797 5797 5799 5800 5802 5804 5807 5809 5811 5812
5744 5742 5740 5738 5736 5734 5732 5730 5728 5725 5723 5720 5718 5715 5712 5709 5707 5704 5701 5698 5696 5693 5691 5689 5687 5685 5685 5683 5682 5681 5680 5681 5681 5680 5681 5682 5684 5686 5688 5690 5693 5696 5698 5701 5703 5706 5710 5713 5718 5722 5725 5728 5730 5734 5738 5741 5744 5748 5752 5755 5758 5757 5756 5761 5764 5765 5768 5770 5773 5777 5782 5784 5784 5787 5788 5791 5793 5794 5794 5795 5796 5797 5799 5801 5804 5806 5808 5809
5742 5740 5738 5736 5734 5732 5730 5727 5725 5722 5719 5717 5714 5711 5708 5705 5701 5698 5695 5692 5690 5687 5684 5681 5679 5677 5676 5674 5673 5671 5671 5671 5671 5670 5671 5672 5673 5675 5678 5680 5683 5686 5689 5691 5694 5698 5702 5706 5711 5715 5719 5722 5724 5729 5732 5735 5739 5743 5747 5750 5753 5751 5750 5756 5758 5760 5764 5767 5770 5774 5778 5780 5781 5784 5785 5788 5790 5790 5791 5792 5794 5795 5796 5798 5801 5803 5805 5806
5740 5738 5736 5734 5732 5730 5727 5725 5722 5719 5716 5713 5710 5707 5704 5700 5697 5693 5690 5687 5683 5680 5677 5674 5671 5669 5667 5665 5664 5662 5661 5661 5660 5660 5661 5662 5663 5665 5667 5670 5673 5676 5679 5682 5686 5689 5693 5698 5703 5708 5712 5715 5718 5724 5727 5730 5735 5738 5742 5745 5748 5746 5744 5751 5753 5755 5760 5763 5767 5771 5774 5776 5778 5781 5783 5785 5786 5787 5788 5789 5791 5792 5793 5795 5797 5800 5802 5802
5739 5737 5734 5732 5730 5727 5725 5722 5719 5716 5713 5710 5707 5703 5700 5696 5692 5688 5684 5681 5677 5673 5670 5667 5663 5660 5658 5656 5654 5652 5651 5650 5650 5650 5650 5651 5653 5655 5657 5660 5663 5666 5669 5673 5677 5680 5684 5690 5695 5700 5705 5708 5713 5718 5721 5725 5730 5733 5737 5739 5743 5741 5739 5745 5748 5751 5756 5759 5763 5766 5770 5773 5776 5777 5780 5782 5782 5784 5786 5787 5788 5790 5791 5792 5794 5796 5798 5799
5737 5735 5732 5730 5727 5725 5722 5719 5717 5714 5710 5707 5704 5700 5696 5692 5688 5683 5679 5674 5670 5666 5662 5658 5655 5651 5648 5646 5643 5642 5640 5639 5639 5639 5640 5641 5642 5644 5647 5650 5652 5656 5660 5663 5667 5671 5675 5681 5687 5692 5698 5702 5707 5712 5714 5719 5724 5728 5731 5732 5736 5736 5734 5741 5744 5747 5753 5755 5758 5763 5766 5770 5772 5774 5777 5779 5779 5781 5783 5785 5787 5788 5789 5790 5791 5793 5795 5796
5736 5733 5731 5728 5726 5723 5720 5718 5715 5711 5708 5705 5701 5697 5693 5688 5683 5678 5673 5667 5662 5657 5653 5649 5645 5642 5639 5636 5634 5632 5631 5629 5628 5628 5629 5630 5631 5634 5636 5638 5641 5645 5649 5653 5657 5662 5667 5673 5678 5685 5691 5695 5700 5705 5708 5714 5719 5722 5724 5725 5730 5732 5730 5735 5739 5742 5748 5750 5755 5760 5763 5766 5769 5772 5774 5775 5776 5778 5781 5783 5785 5787 5787 5786 5788 5789 5792 5794
5734 5732 5730 5727 5724 5722 5719 5716 5713 5710 5706 5703 5698 5694 5689 5683 5678 5672 5666 5660 5654 5649 5644 5641 5637 5634 5632 5630 5628 5626 5623 5622 5620 5620 5620 5621 5622 5624 5626 5628 5630 5635 5639 5643 5648 5653 5659 5664 5670 5677 5683 5688 5693 5697 5702 5710 5713 5713 5714 5720 5726 5727 5725 5730 5734 5738 5744 5747 5752 5757 5760 5763 5766 5769 5770 5771 5774 5775 5778 5780 5783 5786 5783 5781 5783 5786 5788 5791
5734 5731 5729 5726 5723 5721 5718 5715 5711 5708 5704 5700 5696 5690 5685 5678 5672 5666 5660 5654 5648 5643 5639 5635 5632 5629 5628 5625 5623 5621 5618 5616 5615 5614 5614 5614 5615 5616 5617 5619 5621 5625 5628 5633 5638 5643 5650 5656 5663 5670 5675 5680 5686 5691 5697 5703 5703 5701 5708 5716 5721 5721 5722 5726 5730 5735 5741 5745 5749 5754 5758 5762 5764 5766 5766 5768 5771 5772 5774 5776 5780 5782 5779 5777 5780 5783 5785 5788
5734 5731 5728 5726 5723 5720 5717 5714 5710 5707 5703 5698 5693 5687 5680 5673 5666 5660 5654 5649 5643 5639 5635 5632 5629 5627 5624 5622 5620 5617 5615 5613 5611 5610 5609 5609 5609 5610 5611 5612 5614 5616 5619 5623 5628 5634 5640 5647 5655 5662 5667 5674 5679 5684 5689 5693 5691 5694 5705 5711 5713 5717 5719 5722 5726 5731 5737 5742 5748 5752 5755 5758 5761 5761 5762 5764 5767 5769 5771 5773 5776 5777 5776 5776 5779 5781 5783 5786
5734 5731 5728 5726 5723 5720 5716 5713 5709 5705 5701 5696 5690 5683 5676 5668 5660 5654 5650 5645 5641 5637 5633 5630 5626 5624 5622 5619 5616 5614 5612 5610 5609 5607 5606 5605 5605 5605 5606 5607 5608 5610 5612 5615 5619 5625 5631 5638 5647 5653 5660 5666 5670 5676 5682 5684 5684 5690 5700 5704 5708 5713 5715 5719 5723 5728 5735 5740 5745 5748 5750 5753 5756 5757 5758 5761 5763 5766 5768 5770 5772 5774 5775 5776 5778 5779 5782 5784
5734 5731 5729 5726 5723 5719 5716 5712 5709 5704 5699 5693 5687 5680 5672 5663 5655 5649 5645 5642 5638 5635 5631 5627 5624 5621 5619 5616 5614 5612 5610 5608 5607 5606 5604 5603 5602 5602 5602 5603 5604 5605 5607 5610 5613 5617 5623 5630 5638 5645 5651 5656 5662 5671 5674 5675 5678 5685 5694 5698 5703 5708 5712 5717 5721 5726 5733 5737 5742 5745 5747 5750 5752 5754 5756 5758 5761 5763 5766 5768 5770 5771 5773 5775 5777 5778 5780 5782
5734 5732 5729 5726 5723 5719 5716 5712 5708 5703 5698 5691 5685 5677 5668 5659 5652 5646 5642 5638 5635 5632 5628 5625 5623 5620 5617 5615 5613 5611 5609 5607 5606 5605 5604 5603 5602 5600 5599 5599 5600 5601 5602 5605 5608 5612 5616 5622 5629 5636 5642 5648 5657 5663 5665 5668 5673 5681 5689 5692 5697 5703 5709 5714 5718 5724 5729 5734 5739 5741 5744 5746 5750 5752 5754 5756 5758 5761 5763 5766 5768 5769 5771 5773 5775 5777 5779 5781
5735 5732 5729 5726 5723 5719 5716 5711 5707 5702 5696 5690 5682 5674 5664 5656 5651 5647 5642 5638 5634 5631 5627 5625 5622 5620 5618 5615 5612 5610 5609 5608 5608 5607 5605 5604 5603 5601 5599 5598 5598 5598 5600 5602 5605 5608 5611 5616 5622 5628 5635 5642 5650 5654 5658 5664 5669 5677 5684 5688 5694 5700 5706 5712 5716 5721 5726 5732 5735 5738 5741 5743 5747 5750 5752 5754 5756 5759 5761 5763 5766 5767 5769 5771 5773 5776 5778 5779
5735 5733 5730 5726 5723 5719 5716 5711 5707 5702 5696 5689 5681 5672 5663 5656 5652 5649 5645 5641 5636 5632 5629 5626 5622 5619 5616 5613 5611 5612 5611 5610 5609 5608 5606 5605 5604 5603 5601 5600 5600 5599 5601 5602 5604 5607 5609 5613 5618 5623 5630 5637 5643 5649 5654 5658 5664 5672 5679 5685 5692 5698 5704 5710 5714 5718 5724 5729 5732 5735 5738 5740 5743 5746 5749 5752 5754 5757 5759 5761 5763 5764 5766 5768 5770 5773 5775 5776
5736 5733 5730 5727 5723 5720 5716 5712 5707 5702 5696 5688 5680 5671 5664 5659 5655 5652 5648 5644 5641 5637 5634 5629 5624 5620 5616 5614 5614 5615 5613 5612 5611 5609 5608 5606 5605 5605 5604 5603 5602 5602 5603 5604 5606 5608 5610 5612 5616 5621 5628 5634 5641 5647 5651 5655 5661 5669 5676 5682 5690 5696 5703 5708 5712 5717 5723 5727 5730 5733 5736 5737 5740 5743 5745 5748 5750 5754 5756 5758 5759 5760 5763 5765 5768 5769 5771 5773
5737 5734 5731 5728 5724 5721 5717 5712 5708 5702 5695 5688 5681 5673 5666 5661 5658 5654 5650 5648 5646 5641 5636 5631 5627 5622 5618 5617 5617 5616 5615 5614 5613 5611 5610 5608 5606 5606 5605 5605 5604 5604 5605 5605 5607 5609 5610 5612 5616 5622 5628 5634 5641 5648 5653 5659 5663 5669 5676 5682 5688 5695 5701 5706 5711 5717 5722 5726 5729 5732 5734 5735 5738 5740 5743 5745 5748 5751 5753 5755 5756 5757 5760 5762 5765 5766 5767 5769
5738 5736 5732 5729 5726 5722 5718 5714 5708 5702 5696 5689 5683 5676 5668 5663 5660 5656 5652 5649 5645 5639 5633 5630 5627 5623 5620 5620 5619 5618 5617 5616 5615 5614 5612 5610 5608 5607 5607 5606 5606 5606 5606 5607 5608 5608 5609 5613 5618 5625 5631 5634 5640 5648 5655 5661 5665 5669 5676 5682 5687 5693 5698 5704 5709 5714 5720 5725 5727 5730 5732 5733 5736 5739 5741 5743 5746 5748 5751 5754 5755 5756 5758 5760 5762 5764 5765 5766
5739 5737 5734 5731 5728 5724 5720 5716 5710 5704 5698 5692 5685 5679 5672 5666 5661 5658 5654 5649 5644 5639 5635 5631 5628 5626 5624 5622 5622 5621 5620 5619 5617 5616 5615 5613 5611 5610 5609 5608 5608 5608 5608 5609 5609 5610 5611 5616 5621 5627 5632 5636 5642 5649 5655 5662 5667 5670 5676 5682 5687 5692 5697 5702 5707 5712 5718 5722 5724 5727 5730 5731 5734 5737 5739 5741 5744 5746 5749 5752 5754 5756 5757 5758 5759 5761 5762 5763
5741 5738 5735 5732 5729 5726 5722 5717 5713 5708 5702 5695 5688 5682 5676 5670 5664 5660 5655 5650 5645 5640 5636 5633 5631 5629 5627 5626 5625 5624 5622 5621 5619 5618 5617 5615 5614 5613 5611 5611 5611 5611 5611 5611 5613 5614 5617 5621 5626 5630 5634 5639 5644 5651 5657 5664 5669 5672 5677 5682 5687 5691 5696 5701 5705 5710 5715 5718 5720 5724 5728 5729 5732 5734 5737 5739 5742 5744 5746 5749 5751 5753 5755 5756 5757 5758 5759 5761
5742 5740 5737 5734 5731 5727 5723 5719 5715 5711 5705 5699 5694 5688 5681 5673 5667 5664 5660 5654 5649 5644 5640 5636 5634 5631 5629 5629 5628 5626 5625 5624 5622 5620 5619 5618 5617 5616 5615 5615 5615 5615 5615 5616 5618 5619 5622 5626 5630 5633 5637 5642 5647 5653 5659 5665 5670 5675 5681 5685 5688 5691 5696 5700 5704 5708 5712 5714 5717 5722 5725 5727 5729 5732 5735 5738 5740 5742 5744 5746 5748 5750 5752 5754 5755 5756 5757 5758
5744 5741 5738 5735 5732 5729 5725 5721 5717 5713 5708 5704 5699 5694 5686 5678 5671 5667 5664 5659 5654 5649 5643 5639 5637 5634 5632 5632 5630 5629 5628 5626 5624 5623 5622 5621 5621 5619 5619 5619 5619 5620 5620 5621 5623 5624 5626 5629 5632 5635 5639 5646 5651 5657 5663 5667 5672 5678 5685 5689 5691 5694 5698 5703 5706 5708 5709 5712 5716 5721 5723 5725 5727 5730 5733 5736 5738 5740 5742 5744 5746 5748 5750 5752 5753 5753 5754 5755
5745 5743 5740 5737 5734 5731 5727 5723 5720 5716 5712 5707 5703 5699 5693 5686 5679 5673 5669 5664 5657 5651 5645 5643 5641 5638 5636 5635 5633 5632 5631 5629 5628 5626 5625 5624 5624 5623 5624 5623 5623 5625 5624 5625 5628 5629 5630 5632 5636 5639 5642 5648 5655 5659 5665 5671 5675 5681 5686 5691 5694 5697 5700 5703 5707 5709 5710 5712 5715 5718 5721 5722 5725 5729 5732 5734 5736 5738 5740 5742 5743 5745 5747 5748 5749 5750 5751 5751
5747 5744 5742 5739 5736 5733 5729 5726 5722 5718 5714 5710 5706 5703 5698 5692 5686 5680 5676 5669 5661 5655 5649 5647 5645 5641 5640 5639 5636 5635 5635 5633 5631 5629 5628 5628 5628 5627 5628 5628 5629 5629 5628 5630 5633 5633 5634 5637 5641 5644 5647 5651 5658 5663 5667 5672 5677 5680 5683 5687 5692 5696 5699 5702 5705 5707 5710 5712 5715 5717 5718 5720 5723 5726 5729 5732 5734 5736 5738 5739 5741 5742 5743 5745 5746 5746 5747 5748
5749 5746 5744 5741 5738 5735 5731 5728 5725 5721 5717 5713 5710 5706 5701 5697 5691 5688 5683 5671 5662 5656 5652 5650 5648 5645 5644 5642 5640 5640 5638 5635 5633 5632 5631 5631 5631 5630 5631 5633 5634 5632 5631 5635 5638 5636 5638 5642 5645 5649 5652 5655 5661 5666 5670 5674 5677 5681 5682 5686 5690 5694 5698 5701 5704 5706 5709 5712 5714 5716 5718 5719 5722 5725 5727 5729 5731 5733 5735 5737 5738 5739 5740 5741 5742 5742 5743 5744
5751 5749 5746 5743 5740 5737 5734 5731 5727 5723 5720 5717 5714 5710 5706 5701 5696 5694 5685 5669 5660 5658 5655 5653 5651 5649 5647 5645 5645 5644 5641 5638 5637 5637 5635 5634 5635 5634 5636 5638 5638 5636 5635 5639 5640 5639 5643 5647 5649 5652 5656 5660 5665 5670 5674 5677 5679 5682 5685 5688 5692 5694 5697 5700 5703 5706 5708 5711 5713 5715 5717 5719 5721 5724 5726 5728 5730 5731 5733 5734 5735 5736 5737 5738 5738 5739 5739 5740
5754 5751 5749 5746 5742 5739 5736 5733 5730 5727 5723 5720 5718 5714 5711 5706 5702 5698 5685 5668 5664 5663 5660 5658 5657 5654 5652 5651 5651 5649 5645 5644 5643 5641 5639 5639 5639 5639 5641 5642 5642 5641 5641 5642 5643 5644 5648 5651 5653 5657 5661 5664 5668 5672 5676 5680 5683 5686 5689 5692 5694 5696 5698 5700 5703 5706 5708 5710 5711 5713 5716 5719 5721 5723 5724 5726 5728 5729 5730 5732 5733 5734 5734 5735 5735 5736 5736 5737
5756 5754 5751 5748 5745 5742 5739 5735 5733 5730 5726 5723 5721 5719 5714 5710 5708 5701 5683 5672 5671 5669 5667 5666 5664 5660 5658 5658 5656 5653 5651 5649 5647 5644 5643 5643 5643 5644 5646 5646 5646 5646 5647 5647 5648 5650 5654 5656 5658 5662 5665 5668 5671 5674 5677 5682 5687 5690 5692 5695 5696 5698 5700 5703 5704 5706 5708 5710 5712 5714 5716 5718 5720 5721 5722 5724 5726 5727 5728 5730 5730 5731 5732 5732 5733 5733 5734 5734
5758 5756 5753 5750 5747 5744 5741 5738 5736 5733 5729 5726 5724 5722 5718 5715 5711 5699 5685 5681 5679 5677 5677 5674 5670 5667 5665 5664 5661 5657 5656 5653 5650 5649 5648 5647 5647 5649 5651 5651 5651 5652 5653 5653 5654 5657 5660 5661 5663 5665 5668 5671 5675 5678 5681 5684 5689 5692 5694 5697 5698 5700 5702 5704 5706 5707 5709 5711 5713 5714 5716 5717 5719 5720 5721 5723 5725 5726 5727 5727 5728 5729 5729 5730 5730 5730 5731 5731
5760 5758 5755 5753 5750 5747 5744 5741 5738 5736 5732 5730 5727 5724 5722 5720 5710 5697 5691 5689 5686 5686 5686 5681 5677 5674 5671 5669 5666 5662 5661 5658 5655 5655 5654 5652 5653 5654 5655 5655 5656 5657 5659 5659 5659 5662 5665 5667 5668 5669 5672 5675 5678 5681 5683 5686 5690 5693 5696 5698 5699 5702 5703 5705 5706 5708 5710 5711 5713 5714 5715 5717 5718 5720 5721 5722 5723 5724 5724 5725 5726 5726 5727 5727 5728 5728 5728 5728
5763 5760 5758 5755 5752 5750 5747 5744 5741 5738 5735 5734 5729 5727 5727 5721 5709 5701 5699 5696 5693 5693 5691 5687 5684 5681 5678 5677 5672 5668 5667 5664 5662 5661 5659 5659 5660 5660 5660 5660 5661 5662 5664 5664 5664 5666 5668 5670 5672 5673 5676 5678 5681 5684 5686 5689 5692 5694 5697 5699 5700 5702 5703 5704 5706 5707 5709 5710 5711 5713 5714 5716 5717 5718 5720 5720 5721 5722 5722 5723 5723 5724 5724 5725 5725 5725 5726 5726
5764 5762 5760 5757 5755 5753 5749 5747 5744 5741 5739 5736 5731 5731 5730 5721 5710 5708 5706 5702 5700 5699 5696 5693 5690 5687 5686 5683 5677 5675 5673 5670 5668 5667 5666 5667 5667 5665 5664 5665 5665 5666 5668 5669 5670 5671 5672 5673 5675 5677 5680 5681 5683 5687 5689 5691 5694 5696 5698 5700 5701 5702 5703 5704 5705 5706 5708 5709 5710 5711 5713 5714 5716 5717 5718 5718 5719 5719 5720 5720 5721 5722 5722 5722 5722 5722 5723 5723
5765 5764 5762 5759 5758 5755 5753 5750 5746 5745 5742 5736 5735 5737 5731 5721 5716 5714 5711 5708 5707 5704 5702 5699 5696 5694 5692 5687 5684 5683 5679 5676 5675 5674 5674 5674 5672 5670 5670 5670 5670 5670 5673 5674 5675 5676 5676 5677 5678 5680 5683 5684 5686 5689 5691 5693 5695 5697 5698 5700 5701 5702 5703 5704 5705 5706 5707 5708 5710 5711 5712 5713 5714 5715 5716 5717 5717 5718 5718 5719 5719 5720 5720 5720 5720 5720 5720 5720
5767 5766 5763 5762 5760 5757 5756 5752 5749 5748 5742 5737 5741 5740 5731 5724 5722 5720 5716 5714 5712 5709 5707 5705 5702 5700 5697 5693 5691 5689 5686 5684 5683 5683 5681 5679 5677 5675 5675 5675 5675 5676 5678 5679 5679 5680 5681 5681 5682 5684 5686 5687 5688 5690 5692 5694 5696 5697 5699 5700 5701 5703 5704 5705 5706 5707 5708 5709 5710 5711 5712 5713 5714 5714 5715 5716 5716 5717 5717 5718 5718 5718 5718 5719 5719 5719 5719 5719
5768 5767 5765 5763 5761 5759 5758 5754 5752 5750 5743 5741 5746 5741 5733 5730 5727 5724 5722 5719 5717 5714 5713 5711 5708 5705 5702 5699 5697 5695 5694 5693 5691 5690 5688 5684 5682 5680 5680 5680 5680 5681 5683 5684 5684 5685 5685 5684 5685 5687 5689 5690 5691 5692 5694 5695 5696 5698 5699 5701 5702 5703 5705 5706 5707 5708 5709 5710 5710 5711 5712 5713 5714 5714 5715 5715 5716 5716 5717 5717 5717 5718 5718 5718 5718 5718 5718 5718
5769 5768 5766 5765 5763 5762 5760 5756 5755 5752 5745 5747 5748 5741 5736 5735 5731 5728 5726 5723 5722 5720 5718 5716 5712 5709 5707 5706 5703 5701 5701 5700 5698 5697 5695 5691 5688 5686 5687 5687 5686 5686 5687 5688 5688 5688 5689 5689 5688 5690 5691 5692 5693 5694 5695 5697 5698 5699 5700 5702 5703 5704 5705 5707 5708 5709 5710 5710 5711 5712 5713 5713 5714 5714 5715 5716 5716 5716 5717 5717 5717 5717 5718 5718 5718 5718 5717 5717
5770 5769 5768 5766 5765 5764 5761 5759 5758 5753 5749 5751 5749 5743 5740 5738 5734 5733 5731 5728 5727 5724 5722 5720 5717 5715 5713 5711 5709 5708 5707 5705 5704 5703 5701 5698 5695 5694 5694 5693 5692 5692 5692 5692 5692 5692 5694 5693 5692 5692 5693 5694 5695 5696 5697 5699 5700 5701 5702 5703 5705 5706 5707 5708 5709 5710 5711 5711 5712 5713 5714 5714 5715 5715 5716 5716 5716 5717 5717 5717 5718 5718 5717 5717 5717 5717 5716 5715
5771 5770 5769 5768 5767 5765 5763 5762 5759 5754 5753 5754 5750 5746 5744 5741 5738 5737 5734 5732 5731 5728 5726 5724 5722 5720 5718 5716 5715 5713 5712 5710 5709 5709 5706 5703 5702 5701 5700 5700 5699 5699 5698 5698 5698 5698 5699 5699 5697 5697 5697 5698 5699 5699 5701 5702 5703 5704 5705 5706 5707 5708 5709 5710 5711 5712 5712 5713 5714 5714 5715 5715 5716 5716 5717 5717 5717 5718 5718 5718 5717 5717 5717 5716 5716 5715 5715 5714
5772 5771 5770 5769 5768 5767 5765 5763 5760 5757 5756 5755 5751 5749 5747 5744 5742 5740 5738 5736 5734 5732 5731 5728 5726 5725 5723 5721 5720 5718 5717 5715 5714 5713 5711 5709 5708 5706 5706 5706 5706 5705 5704 5704 5704 5704 5705 5705 5704 5703 5702 5704 5705 5705 5706 5707 5707 5708 5709 5710 5711 5711 5712 5712 5713 5714 5715 5715 5715 5716 5716 5717 5717 5717 5717 5717 5717 5717 5717 5717 5716 5716 5716 5715 5715 5715 5715 5715
5772 5771 5771 5770 5769 5768 5766 5764 5762 5760 5758 5756 5754 5752 5749 5747 5745 5744 5742 5740 5738 5736 5734 5732 5731 5729 5727 5726 5724 5723 5722 5720 5719 5718 5716 5714 5713 5712 5712 5712 5711 5710 5710 5709 5709 5710 5710 5710 5709 5709 5709 5710 5711 5711 5711 5712 5712 5713 5713 5714 5714 5715 5715 5715 5716 5716 5717 5717 5717 5717 5717 5717 5718 5718 5717 5717 5717 5717 5716 5716 5716 5716 5716 5716 5716 5716 5715 5715
5773 5772 5772 5771 5770 5769 5768 5766 5764 5762 5760 5758 5756 5754 5752 5750 5748 5746 5745 5743 5741 5740 5738 5736 5735 5733 5732 5730 5728 5727 5726 5725 5723 5722 5720 5719 5718 5717 5717 5716 5716 5715 5714 5714 5714 5714 5714 5714 5714 5715 5715 5716 5716 5716 5716 5716 5717 5717 5717 5718 5718 5718 5719 5719 5719 5719 5719 5719 5719 5719 5719 5719 5719 5719 5719 5718 5718 5718 5717 5717 5717 5717 5717 5717 5716 5716 5715 5714
5773 5773 5772 5772 5771 5770 5769 5767 5765 5764 5762 5760 5758 5756 5754 5752 5751 5749 5747 5746 5745 5743 5741 5740 5738 5737 5736 5734 5733 5732 5730 5729 5728 5726 5725 5724 5723 5722 5722 5721 5720 5720 5719 5719 5718 5718 5718 5718 5718 5719 5719 5719 5720 5720 5720 5720 5720 5721 5721 5721 5721 5721 5721 5721 5721 5721 5721 5721 5721 5720 5720 5720 5720 5720 5720 5719 5719 5719 5718 5718 5717 5717 5717 5716 5715 5714 5713 5712
5774 5773 5772 5772 5771 5771 5770 5768 5767 5765 5763 5762 5760 5758 5757 5755 5753 5752 5750 5749 5747 5746 5745 5743 5742 5740 5739 5738 5737 5736 5734 5733 5732 5730 5729 5728 5727 5726 5726 5725 5724 5724 5723 5723 5722 5722 5722 5722 5722 5722 5722 5723 5723 5723 5723 5723 5723 5723 5723 5723 5723 5723 5723 5723 5723 5723 5723 5723 5722 5722 5722 5721 5721 5720 5720 5720 5719 5718 5718 5717 5717 5716 5715 5714 5713 5711 5710 5708
5775 5774 5773 5772 5772 5771 5770 5769 5768 5766 5765 5763 5762 5760 5759 5757 5756 5754 5752 5751 5750 5748 5747 5746 5745 5744 5742 5741 5740 5739 5738 5737 5736 5734 5733 5732 5731 5730 5729 5728 5728 5727 5727 5726 5726 5726 5725 5725 5725 5725 5725 5725 5725 5725 5725 5725 5725 5725 5725 5725 5725 5725 5725 5724 5724 5724 5724 5723 5723 5722 5722 5721 5721 5720 5720 5719 5718 5717 5717 5716 5715 5714 5712 5711 5710 5708 5707 5705
5776 5775 5774 5773 5772 5771 5770 5770 5769 5768 5766 5765 5764 5762 5761 5759 5758 5756 5755 5753 5752 5751 5749 5748 5747 5746 5745 5743 5742 5741 5740 5739 5738 5737 5736 5735 5735 5734 5733 5732 5731 5731 5730 5729 5729 5729 5728 5728 5728 5727 5728 5728 5727 5727 5727 5727 5727 5727 5726 5726 5726 5726 5725 5725 5725 5724 5724 5723 5723 5723 5722 5721 5721 5720 5719 5718 5717 5716 5715 5713 5712 5711 5709 5708 5707 5705 5703 5702
5776 5775 5775 5774 5773 5772 5771 5770 5769 5768 5767 5766 5765 5764 5762 5761 5760 5759 5757 5756 5754 5753 5752 5751 5749 5748 5747 5746 5745 5744 5743 5742 5741 5740 5739 5738 5738 5737 5736 5735 5734 5734 5733 5732 5732 5731 5731 5731 5730 5730 5730 5729 5729 5729 5728 5728 5728 5728 5728 5727 5727 5727 5726 5726 5725 5725 5724 5724 5723 5722 5721 5721 5720 5719 5718 5717 5716 5715 5713 5711 5710 5708 5706 5705 5703 5702 5700 5698
5776 5776 5775 5774 5774 5773 5772 5771 5770 5769 5768 5767 5766 5765 5764 5763 5762 5761 5759 5758 5757 5755 5754 5753 5751 5750 5749 5748 5747 5746 5745 5744 5743 5742 5741 5741 5740 5739 5738 5738 5737 5736 5736 5735 5735 5734 5733 5733 5732 5732 5731 5731 5731 5730 5730 5729 5729 5729 5728 5728 5727 5727 5727 5726 5725 5725 5724 5723 5722 5721 5720 5719 5718 5717 5716 5715 5714 5713 5711 5709 5708 5706 5704 5702 5701 5699 5697 5695
5777 5776 5775 5774 5774 5773 5772 5772 5771 5770 5769 5768 5767 5766 5765 5764 5763 5762 5761 5760 5759 5757 5756 5754 5753 5752 5751 5750 5749 5748 5747 5746 5745 5744 5744 5743 5742 5741 5740 5740 5739 5738 5738 5737 5737 5736 5735 5735 5734 5734 5733 5733 5732 5732 5731 5730 5730 5729 5728 5728 5727 5727 5726 5726 5725 5724 5724 5723 5721 5720 5719 5718 5717 5716 5714 5713 5711 5710 5708 5707 5705 5703 5701 5700 5698 5696 5694 5692
5777 5776 5775 5774 5774 5773 5773 5772 5771 5770 5769 5768 5767 5766 5765 5764 5764 5763 5762 5761 5760 5759 5758 5756 5755 5754 5753 5752 5751 5750 5749 5748 5747 5746 5746 5745 5744 5743 5742 5742 5741 5740 5739 5739 5738 5737 5737 5736 5735 5735 5734 5733 5733 5732 5732 5731 5730 5730 5729 5728 5727 5726 5725 5725 5724 5723 5723 5722 5721 5719 5717 5716 5715 5714 5713 5711 5709 5708 5706 5704 5702 5699 5698 5696 5695 5693 5691 5688
5776 5776 5775 5774 5773 5773 5772 5772 5771 5770 5770 5769 5768 5767 5766 5765 5764 5763 5763 5762 5761 5760 5759 5758 5757 5756 5754 5753 5752 5752 5751 5750 5749 5748 5747 5746 5746 5745 5744 5743 5742 5742 5741 5740 5739 5739 5738 5737 5736 5735 5735 5734 5733 5732 5732 5731 5731 5730 5729 5728 5727 5726 5725 5724 5722 5722 5721 5721 5720 5718 5716 5715 5713 5712 5711 5709 5707 5705 5704 5701 5699 5696 5694 5693 5691 5689 5687 5684